This is the latest recevied weather packets stored in our database for station/object iz1wiy-3. If no packets are shown the sender has not sent any weather packets the latest 1 day(s).
| Time | Temp. | Humidity | Pressure | Rain* | Wind** | Luminosity | Snow |
|---|---|---|---|---|---|---|---|
| 1778045283 | 16.11° C | 87% | 1009.1 hPa | 15.75 mm | 1.79 m/s, 207° | - | - |
| 1778045224 | 16.67° C | 87% | 1009.3 hPa | 15.24 mm | 1.79 m/s, 207° | - | - |
| 1778045163 | 16.67° C | 87% | 1009.3 hPa | 13.97 mm | 2.24 m/s, 208° | - | - |
| 1778045103 | 16.67° C | 87% | 1009.4 hPa | 13.46 mm | 2.24 m/s, 213° | - | - |
| 1778045043 | 16.67° C | 88% | 1009.4 hPa | 12.95 mm | 2.24 m/s, 219° | - | - |
| 1778044983 | 16.67° C | 89% | 1009.4 hPa | 12.7 mm | 2.24 m/s, 217° | - | - |
| 1778044923 | 16.67° C | 89% | 1009.4 hPa | 12.45 mm | 2.24 m/s, 218° | - | - |
| 1778044863 | 16.67° C | 89% | 1009.4 hPa | 11.94 mm | 2.24 m/s, 220° | - | - |
| 1778044803 | 16.67° C | 89% | 1009.4 hPa | 11.43 mm | 2.24 m/s, 221° | - | - |
| 1778044743 | 16.67° C | 88% | 1009.4 hPa | 10.92 mm | 2.68 m/s, 221° | - | - |
| 1778044683 | 16.67° C | 88% | 1009.4 hPa | 10.92 mm | 2.68 m/s, 221° | - | - |
| 1778044623 | 16.67° C | 87% | 1009.5 hPa | 10.16 mm | 2.68 m/s, 221° | - | - |
| 1778044563 | 16.67° C | 87% | 1009.5 hPa | 9.4 mm | 2.68 m/s, 222° | - | - |
| 1778044503 | 16.67° C | 86% | 1009.4 hPa | 8.64 mm | 2.68 m/s, 221° | - | - |
| 1778044443 | 17.22° C | 86% | 1009.9 hPa | 6.35 mm | 3.13 m/s, 221° | - | - |
| 1778044384 | 17.22° C | 87% | 1009.6 hPa | 5.08 mm | 3.13 m/s, 225° | - | - |
| 1778044323 | 17.22° C | 87% | 1009.4 hPa | 3.81 mm | 3.13 m/s, 224° | - | - |
| 1778044263 | 17.22° C | 87% | 1009.3 hPa | 3.3 mm | 3.13 m/s, 221° | - | - |
| 1778044203 | 17.22° C | 87% | 1009.3 hPa | 2.54 mm | 3.13 m/s, 222° | - | - |
| 1778044143 | 17.22° C | 87% | 1009.3 hPa | 2.29 mm | 3.13 m/s, 223° | - | - |
| 1778044083 | 17.22° C | 87% | 1009.2 hPa | 2.03 mm | 3.13 m/s, 221° | - | - |
| 1778044023 | 17.22° C | 87% | 1009.2 hPa | 2.03 mm | 3.13 m/s, 221° | - | - |
| 1778043964 | 17.22° C | 87% | 1009.2 hPa | 2.03 mm | 2.68 m/s, 221° | - | - |
| 1778043904 | 17.22° C | 87% | 1009.2 hPa | 2.03 mm | 2.68 m/s, 218° | - | - |
| 1778043843 | 17.22° C | 87% | 1009.2 hPa | 2.29 mm | 2.68 m/s, 217° | - | - |
* Rain latest hour (hover to see other rain measurements)
** Current wind speed in m/s (hover to see current wind gust speed)